Location: Hermaringen
(48.5952°N, 10.2585°E)
Time: 05:43:13
(UTC+00:00)

Transit 2A - Pass Details

Date: 16 February 2026
Orbit: 590 x 954 km, 66.7° (Epoch: 14 March)

Event Time Altitude Azimuth Distance (km) Brightness Sun altitude
Rises 19:40:50 0° 325° (NW) 3,615 10.2 -30.0°
Reaches altitude 10° 19:43:37 10° 332° (NNW) 2,641 9.3 -30.4°
Enters shadow 19:47:48 35° 5° (N) 1,425 7.4 -31.1°
